San Luis Potosi, Mexico

1:47 PM CST on February 14, 2016 (GMT -0600)
Ponciano Arriaga International

Weather History for MMSP - May, 2013

Change the Weather History Date:

Wednesday, May 29, 2013

  Actual Average Record
Temperature  
Mean Temperature 70 °F -  
Max Temperature 84 °F 79 °F 93 °F (2011)
Min Temperature 57 °F 56 °F 48 °F (2001)
Cooling Degree Days 6    
Growing Degree Days 20 (Base 50)    
Moisture  
Dew Point 55 °F    
Average Humidity 61    
Maximum Humidity 100    
Minimum Humidity 24    
Precipitation  
Precipitation 0.00 in - - ()
Sea Level Pressure  
Sea Level Pressure 29.88 in    
Wind  
Wind Speed 7 mph ()    
Max Wind Speed 20 mph    
Max Gust Speed -    
Visibility 10.8 miles    
Events      
Averages and records for this station are not official NWS values.
T = Trace of Precipitation, MM = Missing Value Source: Averaged Metar Reports

Daily Weather History Graph

Daily Weather History Graph

Search for Another Location

Airport or City:

Trip Planner

Search our weather history database for the weather conditions in past years. The results will help you decide how hot, cold, wet, or windy it might be!

Date:

Astronomy

May. 29, 2013 Rise Set
Actual Time 6:59 AM CDT 8:22 PM CDT
Civil Twilight 6:35 AM CDT 8:47 PM CDT
Nautical Twilight 6:05 AM CDT 9:16 PM CDT
Astronomical Twilight 5:35 AM CDT 9:47 PM CDT
Moon 12:02 AM CDT (5/29) 11:42 AM CDT (5/29)
Length of Visible Light 14h 12m
Length of Day
13h 23m
Waning Gibbous, 73% of the Moon is Illuminated
May 29
Waning Gibbous
May 31
Last Quarter
Jun 8
New
Jun 16
First Quarter
Jun 23
Full

Hourly Weather History & Observations

Time (CDT) Temp. Heat Index Dew Point Humidity Pressure Visibility Wind Dir Wind Speed Gust Speed Precip Events Conditions
12:41 AM 64.4 °F - 60.8 °F 88% 29.66 in 12.0 mi SE 13.8 mph - N/A   Clear
1:40 AM 64.4 °F - 60.8 °F 88% 30.09 in 12.0 mi SE 6.9 mph - N/A   Scattered Clouds
2:41 AM 62.6 °F - 59.0 °F 88% 30.08 in 12.0 mi SE 9.2 mph - N/A   Scattered Clouds
3:44 AM 62.6 °F - 59.0 °F 88% 29.59 in 10.0 mi SE 4.6 mph - N/A   Scattered Clouds
5:03 AM 59.0 °F - 57.2 °F 94% 30.06 in 10.0 mi ENE 6.9 mph - N/A   Mostly Cloudy
5:40 AM 57.2 °F - 57.2 °F 100% 30.06 in 10.0 mi NE 4.6 mph - N/A   Clear
6:43 AM 59.0 °F - 59.0 °F 100% 29.61 in 8.0 mi Calm Calm - N/A   Clear
6:50 AM 58 °F - 46 °F 55% 29.74 in 5 mi ENE 2.2 mph - -  
8:13 AM 59.0 °F - 55.4 °F 88% 30.10 in 5.0 mi Calm Calm - N/A   Clear
8:54 AM 62.6 °F - 57.2 °F 82% 30.10 in 8.0 mi Calm Calm - N/A   Clear
9:50 AM 70 °F - 47 °F 33% 29.81 in 7 mi East 4.5 mph - -   Haze
9:50 AM 68.0 °F - 57.2 °F 68% 29.65 in 8.0 mi Calm Calm - N/A   Clear
10:45 AM 71.6 °F - 55.4 °F 57% 30.10 in 8.0 mi SW 4.6 mph - N/A   Clear
11:43 AM 75.2 °F - 53.6 °F 47% 30.09 in 10.0 mi ESE 5.8 mph - N/A   Clear
12:44 PM 78.8 °F - 55.4 °F 44% 29.62 in 15.0 mi North 4.6 mph - N/A   Partly Cloudy
12:45 PM 79 °F - 51 °F 26% 29.76 in 7 mi SSE 2.2 mph - -   Haze
1:52 PM 80.6 °F 80.3 °F 53.6 °F 39% 30.04 in 15.0 mi NW 8.1 mph - N/A   Mostly Cloudy
2:40 PM 80.6 °F 80.3 °F 53.6 °F 39% 30.03 in 15.0 mi West 11.5 mph - N/A   Overcast
3:40 PM 84.2 °F 83.0 °F 55.4 °F 37% 29.50 in 15.0 mi NNW 17.3 mph - N/A   Overcast
4:46 PM 84.2 °F 83.0 °F 55.4 °F 37% 29.98 in 12.0 mi East 16.1 mph - N/A   Mostly Cloudy
5:46 PM 80.6 °F 80.3 °F 53.6 °F 39% 29.98 in 15.0 mi East 17.3 mph - N/A   Mostly Cloudy
6:45 PM 80 °F - 50 °F 24% 29.58 in 9 mi East 6.7 mph - -   Haze
6:46 PM 80.6 °F 80.3 °F 53.6 °F 39% 29.54 in 15.0 mi East 16.1 mph - N/A   Scattered Clouds
7:41 PM 77.0 °F - 51.8 °F 41% 29.99 in 15.0 mi SE 19.6 mph - N/A   Mostly Cloudy
8:40 PM 73.4 °F - 51.8 °F 47% 30.02 in 12.0 mi ESE 11.5 mph - N/A   Mostly Cloudy
9:40 PM 69.8 °F - 59.0 °F 68% 29.60 in 12.0 mi SSE 11.5 mph - N/A   Mostly Cloudy
10:49 PM 68.0 °F - 60.8 °F 78% 30.07 in 10.0 mi SSE 9.2 mph - N/A   Mostly Cloudy
11:47 PM 66.2 °F - 59.0 °F 78% 30.10 in 10.0 mi SE 8.1 mph - N/A   Scattered Clouds